Preview of NWS' New Version of Forecast
This preview is not operational and should not be used for support decisions.
Latest weather observations around

Kansas City, Kansas City Downtown Airport (KMKC)

Using English Units (Switch to International System of Units)
Date/ Time (CST) Wind (mph) Vis. (mi) Weather Sky Cond. Temp (°F) Rel. Humidity Wind Chill (°F) Heat Index (°F) Pressure Precip. (in)
Air Dwpt 6 hour Altimeter (inHg) Sea level (inHg) 1 hr 3 hr 6 hr
Max Min
Jan 17 22:54 Calm 7 Cloudy FEW010 OVC020 35 29     78%     30.15 30.16      
Jan 17 21:54 NNE 3 7 Cloudy OVC022 35 30     82% 32   30.14 30.16      
Jan 17 21:07 N 5 6 Fog/Mist FEW008 FEW016 OVC023 34 30     85% 30   30.14        
Jan 17 20:54 Calm 6 Fog/Mist FEW016 OVC024 34 30     85%     30.15 30.16      
Jan 17 20:19 NNW 5 6 Fog/Mist FEW012 OVC024 34 30     85% 30   30.14        
Jan 17 19:54 N 3 6 Fog/Mist FEW007 BKN011 OVC023 34 30     85% 31   30.15 30.16      
Jan 17 19:17 NNW 7 4 Fog/Mist SCT008 OVC011 34 30     85% 28   30.15        
Jan 17 18:54 WNW 10 5 Haze OVC011 35 30     82% 27   30.16 30.17      
Jan 17 17:54 W 6 8 Cloudy OVC010 35 30     82% 30   30.14 30.15      
Jan 17 16:54 W 5 7 Cloudy OVC010 35 30     82% 31   30.12 30.13      
Jan 17 16:38 W 5 7 Cloudy OVC009 35 30     82% 31   30.11        
Jan 17 16:25 W 7 8 Cloudy OVC010 35 30     82% 29   30.11        
Jan 17 15:54 WNW 3 8 Cloudy OVC009 35 30     82% 32   30.1 30.12      
Jan 17 14:54 NNW 6 9 Cloudy OVC009 35 30     82% 30   30.1 30.12      
Jan 17 13:54 W 8 7 Cloudy OVC008 35 30     82% 29   30.11 30.13      
Jan 17 12:54 W 6 9 Cloudy OVC008 36 31     82% 31   30.12 30.14      
Jan 17 12:40 W 7 8 Cloudy OVC009 35 30     82% 29   30.13        
Jan 17 11:54 W 5 10 Cloudy OVC011 36 30     79% 32   30.14 30.16      
Jan 17 11:32 NNW 5 10 Cloudy OVC010 36 30     79% 32   30.14        
Jan 17 10:54 N 5 10 Cloudy OVC009 35 30     82% 31   30.13 30.15      
Jan 17 09:54 N 6 7 Cloudy OVC007 34 31     88% 29   30.13 30.14      
Jan 17 09:38 NNW 5 6 Fog/Mist OVC005 34 31     88% 30   30.12        
Jan 17 08:54 N 6 5 Fog/Mist OVC003 34 31     88% 29   30.11 30.12      
Jan 17 08:18 N 5 1 Fog/Mist OVC003 34 31     88% 30   30.09        
Jan 17 08:07 N 6 2.5 Fog/Mist OVC004 34 31     88% 29   30.1        
Jan 17 07:54 NNW 7 4 Fog/Mist OVC004 34 31     88% 28   30.1 30.11      
Jan 17 07:15 NW 7 7 Cloudy OVC004 34 31     88% 28   30.09        
Jan 17 06:54 NNW 6 8 Cloudy OVC005 34 31     88% 29   30.08 30.09      
Jan 17 05:54 NNW 3 10 Cloudy OVC006 34 31     88% 31   30.07 30.08      
Jan 17 04:54 N 6 8 Cloudy OVC005 34 31     88% 29   30.06 30.08      
Jan 17 04:20 NNE 6 4 Fog/Mist OVC005 34 31     88% 29   30.05        
Jan 17 03:54 N 6 5 Fog/Mist OVC004 34 31     88% 29   30.06 30.07      
Jan 17 02:54 N 7 8 Cloudy OVC004 34 31     88% 28   30.06 30.08      
Jan 17 01:54 NE 5 8 Cloudy OVC004 34 31     88% 30   30.06 30.08      
Jan 17 00:54 NE 5 6 Fog/Mist OVC003 34 31     88% 30   30.07 30.08      
Jan 16 23:54 ENE 6 6 Fog/Mist OVC004 34 31     88% 29   30.09 30.1 0   0
Jan 16 22:54 ENE 7 5 Light Rain and Fog/Mist OVC003 34 31     88% 28   30.1 30.12 0    
Jan 16 21:54 ENE 6 4 Fog/Mist OVC003 34 31     88% 29   30.1 30.11      
Jan 16 20:54 NE 6 5 Fog/Mist OVC004 34 31     88% 29   30.1 30.12      
Jan 16 19:54 E 6 7 Cloudy OVC005 34 31     88% 29   30.11 30.12      
Jan 16 18:54 E 7 6 Fog/Mist OVC005 34 30     85% 28   30.11 30.12      
Jan 16 17:54 E 8 5 Fog/Mist OVC005 34 30     85% 27   30.11 30.13      
Jan 16 16:54 ENE 7 3 Fog/Mist OVC005 34 30     85% 28   30.13 30.14      
Jan 16 16:40 ENE 7 3 Fog/Mist OVC005 34 30     85% 28   30.13        
Jan 16 16:19 E 6 2.5 Fog/Mist OVC005 34 30     85% 29   30.13        
Jan 16 15:54 ENE 8 3 Fog/Mist OVC005 34 30     85% 27   30.13 30.14      
Jan 16 15:47 ENE 8 3 Fog/Mist OVC005 34 30     85% 27   30.13        
Jan 16 15:16 ENE 8 2.5 Fog/Mist OVC005 34 30     85% 27   30.12        
Jan 16 15:01 NE 9 3 Fog/Mist OVC004 34 30     85% 27   30.12        
Jan 16 14:54 ENE 7 2.5 Fog/Mist OVC004 34 30     85% 28   30.13 30.15      
Jan 16 14:45 ENE 7 3 Fog/Mist OVC004 34 30     85% 28   30.13        
Jan 16 13:54 E 6 3 Fog/Mist OVC005 34 30     85% 29   30.15 30.16      
Jan 16 12:54 E 6 4 Fog/Mist OVC005 34 30     85% 29   30.16 30.18      
Jan 16 11:54 ENE 6 4 Haze OVC006 34 29     82% 29   30.2 30.22      
Jan 16 10:54 E 6 6 Haze OVC009 34 29     82% 29   30.21 30.23      
Jan 16 09:54 E 8 6 Haze OVC009 34 29     82% 27   30.21 30.22      
Jan 16 09:20 ENE 5 7 Cloudy OVC009 34 28     79% 30   30.21        
Jan 16 08:54 NE 6 8 Cloudy OVC010 34 28     79% 29   30.22 30.23      
Jan 16 07:54 ENE 5 8 Cloudy OVC008 33 28     82% 29   30.23 30.24      
Jan 16 06:54 NNE 5 7 Cloudy OVC008 33 28     82% 29   30.2 30.22      
Jan 16 05:54 N 3 7 Cloudy OVC007 33 29     85% 30   30.2 30.22      
Jan 16 04:54 NNE 7 6 Fog/Mist OVC007 33 29     85% 27   30.18 30.2      
Jan 16 03:54 NNW 6 6 Fog/Mist OVC007 33 29     85% 28   30.19 30.21      
Jan 16 02:54 N 5 7 Cloudy OVC007 33 29     85% 29   30.18 30.19      
Jan 16 01:54 NW 7 6 Fog/Mist OVC006 33 30     88% 27   30.18 30.19      
Jan 16 01:39 NW 7 6 Fog/Mist OVC006 33 30     88% 27   30.18        
Jan 16 01:23 NW 6 5 Fog/Mist OVC004 34 31     88% 29   30.17        
Jan 16 01:05 NW 6 3 Fog/Mist OVC002 34 32     92% 29   30.17        
Jan 16 00:54 WNW 6 1 Fog/Mist OVC002 34 32     92% 29   30.17 30.19      
Jan 16 00:12 WNW 6 0.75 Fog/Mist VV002 35 33     92% 30   30.17        
Jan 16 00:01 W 5 0.75 Fog/Mist VV003 35 33     92% 31   30.17        
Jan 15 23:54 W 6 0.75 Fog/Mist VV002 35 33     92% 30   30.17 30.19      
Jan 15 22:54 W 6 0.75 Fog/Mist VV002 35 33     92% 30   30.18 30.19      
Jan 15 22:03 WSW 7 0.75 Fog/Mist OVC002 35 33     92% 29   30.16        
Jan 15 21:54 SW 6 1 Fog/Mist OVC002 35 33     92% 30   30.16 30.17      
Jan 15 21:05 WSW 5 1.5 Fog/Mist OVC002 35 33     92% 31   30.15        
Jan 15 20:54 WSW 5 2 Fog/Mist OVC003 35 33     92% 31   30.15 30.17      
Jan 15 20:34 WSW 7 2.5 Fog/Mist OVC003 35 32     88% 29   30.15        
Jan 15 19:54 WSW 7 5 Fog/Mist OVC004 35 31     85% 29   30.15 30.16      
Jan 15 18:54 SW 10 5 Fog/Mist OVC004 34 31     88% 26   30.14 30.16      
Jan 15 17:54 SW 13 6 Fog/Mist OVC006 35 31     85% 26   30.14 30.15      
Jan 15 16:54 SW 10 5 Fog/Mist OVC007 35 31     85% 27   30.13 30.14      
Jan 15 15:54 SSW 9 5 Haze OVC007 36 31     82% 29   30.13 30.15      
Jan 15 14:54 SW 10 4 Haze OVC007 36 31     82% 29   30.14 30.16      
Jan 15 13:54 SW 10 4 Haze OVC007 36 31     82% 29   30.15 30.16      
Jan 15 12:54 SW 10 4 Fog/Mist OVC006 35 31     85% 27   30.18 30.19      
Jan 15 11:54 SSW 8 4 Fog/Mist OVC006 35 31     85% 29   30.22 30.24      
Jan 15 10:54 SSW 10 5 Fog/Mist OVC006 34 31     88% 26   30.25 30.27      
Jan 15 09:54 SSW 8 4 Clear   34 30     85% 27   30.25 30.27      
Jan 15 09:23 SSW 8 4 Fog/Mist OVC005 34 30     85% 27   30.25        
Jan 15 08:54 S 10 3 Fog/Mist OVC004 34 30     85% 26   30.24 30.26      
Jan 15 08:43 SSW 10 3 Fog/Mist OVC004 34 30     85% 26   30.24        
Jan 15 08:33 S 10 3 Fog/Mist OVC005 34 30     85% 26   30.23        
Jan 15 07:54 SSW 8 3 Fog/Mist OVC004 34 30     85% 27   30.24 30.26      
Jan 15 06:54 SSW 10 4 Fog/Mist OVC004 33 30     88% 25   30.25 30.27      
Jan 15 05:54 SSW 8 5 Fog/Mist OVC004 33 30     88% 26   30.24 30.26      
Jan 15 05:36 SSW 6 4 Fog/Mist OVC004 33 30     88% 28   30.24        
Jan 15 04:54 SW 8 5 Fog/Mist OVC005 33 30     88% 26   30.24 30.26      
Jan 15 03:54 SSW 6 7 Cloudy OVC005 33 30     88% 28   30.26 30.28      
Jan 15 03:04 SW 8 6 Fog/Mist OVC006 33 30     88% 26   30.29        
Jan 15 02:54 SW 8 6 Fog/Mist OVC004 33 30     88% 26   30.29 30.31      
Jan 15 01:54 SW 8 3 Fog/Mist OVC004 33 30     88% 26   30.3 30.32      
Jan 15 01:05 SSW 5 2.5 Fog/Mist OVC004 32 30     92% 27   30.29        
Jan 15 00:54 SSW 6 3 Fog/Mist OVC005 32 29     88% 26   30.3 30.32      
Jan 14 23:54 SW 7 6 Fog/Mist OVC006 32 29     88% 26   30.31 30.33      
May 15 11:54 WNW 6 10 Mostly Cloudy FEW027 SCT034 BKN075 76 62     62%   76 29.98 29.96      
May 14 19:54 ENE 8 10 Clear   81 66     61%   83 29.78 29.75      
May 14 17:54 SSW 5 10 Clear CLR 83 65     55%   85 29.81 29.78      
May 14 10:54 W 7 10 Mostly Clear FEW034 83 68     61%   86 29.91 29.88      
May 13 20:54 S 11 10 Clear CLR 85 66     53%   87 29.87 29.84      
May 13 02:54 S 9 10 Partly Cloudy SCT065 76 64     67%   76 29.91 29.88      
May 12 09:20 NNE 8 9 Light Rain FEW090 BKN110 72 64     76%   72 29.91   0    
May 12 03:54 S 11 10 Clear CLR 75 62     64%   75 29.81 29.78      
May 11 23:54 S 15 10 Clear CLR 79 60     52%   79 29.82 29.8      
Jun 12 04:54 S 9 10 Clear CLR 74 65     74%   74 29.89 29.86      
Jun 11 15:54   10 Clear CLR 92 69     47%   97 29.79 29.76      
Jun 11 13:54 S 17 10 Clear CLR 91 71     52%   98 29.81 29.78      
Jun 11 05:54   10 Clear CLR 73 65     76%   74 29.83 29.8      
Jun 10 19:54   10 Partly Cloudy SCT042 84 69     61%   88 29.74 29.72      
Jun 10 07:54 SSW 11 10 Clear CLR 73 63     71%   73 29.83 29.81      
Jun 10 06:54 S 9 10 Clear CLR 70 61     73%     29.83 29.81      
Jun 07 13:54 ENE 7 10 Clear CLR 81 47     30%   80 30.08 30.06